Weather History for Altus AFB, OK

Change the Weather History Date:

Sunday, December 2, 2012

  Actual Average Record
Temperature  
Mean Temperature 58 °F -  
Max Temperature 77 °F 54 °F 77 °F (2012)
Min Temperature 38 °F 33 °F 18 °F (2014)
Degree Days  
Heating Degree Days 8    
Growing Degree Days 8 (Base 50)    
Moisture  
Dew Point 41 °F    
Average Humidity 59    
Maximum Humidity 83    
Minimum Humidity 22    
Precipitation  
Precipitation 0.00 in - - ()
Sea Level Pressure  
Sea Level Pressure 29.95 in    
Wind  
Wind Speed 8 mph (South)    
Max Wind Speed 14 mph    
Max Gust Speed -    
Visibility 10 miles    
Events      
Averages and records for this station are not official NWS values.
T = Trace of Precipitation, MM = Missing Value Source: NWS Daily Summary

Daily Weather History Graph

Daily Weather History Graph

Search for Another Location

Airport:

Trip Planner

Search our weather history database for the weather conditions in past years. The results will help you decide how hot, cold, wet, or windy it might be!

Date:

Astronomy

Dec. 02, 2012 Rise Set
Actual Time 7:27 AM CST 5:26 PM CST
Civil Twilight 6:59 AM CST 5:53 PM CST
Nautical Twilight 6:28 AM CST 6:24 PM CST
Astronomical Twilight 5:57 AM CST 6:55 PM CST
Moon 9:10 PM CST (12/2) 10:21 AM CST (12/2)
Length of Visible Light 10h 54m
Length of Day
9h 58m
Waning Gibbous, 85% of the Moon is Illuminated
Dec 2
Waning Gibbous
Dec 6
Last Quarter
Dec 13
New
Dec 19
First Quarter
Dec 28
Full

Hourly Weather History & Observations

Time (CST) Temp. Windchill Dew Point Humidity Pressure Visibility Wind Dir Wind Speed Gust Speed Precip Events Conditions
12:55 AM 51.1 °F - 34.7 °F 54% 29.94 in 10.0 mi NNW 9.2 mph - N/A   Clear
1:55 AM 48.9 °F - 34.9 °F 58% 29.94 in 10.0 mi NW 9.2 mph - N/A   Clear
2:55 AM 44.8 °F 39.9 °F 33.1 °F 64% 29.97 in 10.0 mi SW 9.2 mph - N/A   Clear
3:55 AM 44.6 °F 41.4 °F 31.1 °F 59% 29.98 in 10.0 mi WNW 5.8 mph - N/A   Clear
4:55 AM 41.7 °F 35.2 °F 30.4 °F 64% 29.97 in 10.0 mi NNW 11.5 mph - N/A   Clear
5:55 AM 41.7 °F 37.3 °F 31.1 °F 66% 29.99 in 10.0 mi WNW 6.9 mph - N/A   Clear
6:55 AM 40.3 °F 37.1 °F 31.3 °F 70% 30.01 in 10.0 mi North 4.6 mph - N/A   Clear
7:55 AM 38.5 °F - 31.3 °F 75% 30.03 in 10.0 mi Calm Calm - N/A   Clear
8:55 AM 44.1 °F - 33.6 °F 67% 30.05 in 10.0 mi Calm Calm - N/A   Clear
9:55 AM 49.8 °F - 36.5 °F 60% 30.05 in 10.0 mi Calm Calm - N/A   Clear
10:55 AM 56.7 °F - 39.9 °F 54% 30.05 in 10.0 mi South 5.8 mph - N/A   Clear
11:55 AM 61.3 °F - 38.1 °F 42% 30.03 in 10.0 mi South 3.5 mph - N/A   Clear
12:55 PM 65.7 °F - 34.3 °F 31% 29.99 in 10.0 mi SSE 5.8 mph - N/A   Clear
1:55 PM 70.9 °F - 31.8 °F 24% 29.95 in 10.0 mi South 8.1 mph - N/A   Clear
2:55 PM 74.8 °F - 33.6 °F 22% 29.92 in 10.0 mi SSE 11.5 mph - N/A   Clear
3:55 PM 77.5 °F - 53.1 °F 42% 29.89 in 10.0 mi South 12.7 mph - N/A   Clear
4:55 PM 75.7 °F - 52.3 °F 44% 29.87 in 10.0 mi SSE 11.5 mph - N/A   Clear
5:55 PM 71.4 °F - 52.7 °F 52% 29.88 in 10.0 mi South 12.7 mph - N/A   Clear
6:55 PM 62.8 °F - 51.1 °F 66% 29.89 in 10.0 mi SSE 6.9 mph - N/A   Clear
7:55 PM 62.1 °F - 52.0 °F 70% 29.89 in 10.0 mi South 3.5 mph - N/A   Clear
8:55 PM 57.2 °F - 51.1 °F 80% 29.88 in 10.0 mi ESE 8.1 mph - N/A   Clear
9:55 PM 58.3 °F - 52.7 °F 82% 29.87 in 10.0 mi SSE 10.4 mph - N/A   Clear
10:55 PM 58.5 °F - 53.4 °F 83% 29.87 in 10.0 mi South 8.1 mph - N/A   Clear
11:55 PM 61.9 °F - 54.7 °F 77% 29.86 in 10.0 mi South 13.8 mph - N/A   Clear